STARLINK-35107

Last updated on Tue Sep 16 2025 00:02:08 GMT+0000 (Coordinated Universal Time)

1 65464U 25195G 25257.90174948 -.00571440 00000+0 -35842-2 0 9996 2 65464 53.1560 0.8384 0003371 9.3676 350.7408 15.77586890 2998
UTC large
Height (km)
Speed (km/s)
/
Latitude / Longitude
Inclination (degrees)
Orbital Period (minutes)
Azimuth
Elevation
Range (km)
Doppler Factor

Next 0 passes for location: London (51.5072 / 0.1276)

Sorry there are no passes over London.